TELSTAR 18V (APSTAR 5C) 
1 43611U 18069A   19257.90827479 -.00000306  00000-0  00000-0 0  9999
2 43611   0.0227 153.6489 0001427  58.8878 246.0258  1.00267511  3881
FALCON 9 R/B            
1 43612U 18069B   19258.17213028  .00003178  00000-0  37773-3 0  9998
2 43612  27.0815 287.9289 5701865 356.3759   0.8816  4.51964607 16671